When you browse on this site, cookies collect data to enhance your experience and personalize the content and advertising you see.
Visit our Privacy Policy to learn more. By continuing to use the site, you agree to this use of cookies and data.
  • In United Kingdom
  • List of Countries
  • For 7 days
  • Water Temperature
  • Weather Map
  • Weather Widgets
  • user-avatar
    Login

    Hourly Weather Gyomro

    Today, 18 September, Wednesday

    Time Temperature Precipitation Wind Pressure Humidity
    00:00 +16°C° 0 mm 5 mps 745 mmHg 61%
    01:00 +15°C° 0 mm 4 mps 745 mmHg 65%
    02:00 +14°C° 0 mm 4 mps 745 mmHg 63%
    03:00 +13°C° 0 mm 5 mps 746 mmHg 60%
    04:00 +12°C° 0 mm 5 mps 746 mmHg 58%
    05:00 +11°C° 0 mm 6 mps 747 mmHg 57%
    06:00 +11°C° 0 mm 6 mps 748 mmHg 55%
    07:00 +11°C° 0 mm 7 mps 749 mmHg 53%
    08:00 +12°C° 0 mm 7 mps 749 mmHg 48%
    09:00 +14°C° 0 mm 7 mps 749 mmHg 43%
    10:00 +15°C° 0 mm 6 mps 750 mmHg 38%
    11:00 +16°C° 0 mm 6 mps 750 mmHg 35%
    12:00 +17°C° 0 mm 5 mps 750 mmHg 33%
    13:00 +19°C° 0 mm 5 mps 750 mmHg 30%
    14:00 +17°C° 0 mm 5 mps 750 mmHg 29%
    15:00 +17°C° 0 mm 5 mps 749 mmHg 29%
    16:00 +17°C° 0 mm 5 mps 749 mmHg 28%
    17:00 +17°C° 0 mm 4 mps 749 mmHg 31%
    18:00 +14°C° 0 mm 3 mps 750 mmHg 34%
    19:00 +13°C° 0 mm 3 mps 750 mmHg 37%
    20:00 +13°C° 0 mm 2 mps 750 mmHg 39%
    21:00 +13°C° 0 mm 2 mps 750 mmHg 40%
    22:00 +12°C° 0 mm 2 mps 751 mmHg 42%
    23:00 +12°C° 0 mm 2 mps 751 mmHg 45%

    Tomorrow, 19 September, Thursday

    Time Temperature Precipitation Wind Pressure Humidity
    00:00 +10°C° 0 mm 2 mps 751 mmHg 49%
    01:00 +10°C° 0 mm 2 mps 751 mmHg 52%
    02:00 +10°C° 0 mm 2 mps 751 mmHg 55%
    03:00 +9°C° 0 mm 2 mps 751 mmHg 57%
    04:00 +9°C° 0 mm 2 mps 751 mmHg 60%
    05:00 +9°C° 0 mm 2 mps 751 mmHg 60%
    06:00 +10°C° 0 mm 3 mps 751 mmHg 60%
    07:00 +10°C° 0 mm 3 mps 751 mmHg 61%
    08:00 +12°C° 0 mm 3 mps 752 mmHg 55%
    09:00 +13°C° 0 mm 3 mps 752 mmHg 49%
    10:00 +14°C° 0 mm 3 mps 752 mmHg 43%
    11:00 +16°C° 0 mm 3 mps 752 mmHg 38%
    12:00 +17°C° 0 mm 3 mps 752 mmHg 34%
    13:00 +18°C° 0 mm 3 mps 752 mmHg 30%
    14:00 +17°C° 0 mm 3 mps 752 mmHg 30%
    15:00 +17°C° 0 mm 3 mps 752 mmHg 31%
    16:00 +17°C° 0 mm 4 mps 752 mmHg 31%
    17:00 +16°C° 0 mm 3 mps 752 mmHg 36%
    18:00 +13°C° 0 mm 3 mps 752 mmHg 40%
    19:00 +12°C° 0 mm 3 mps 752 mmHg 44%
    20:00 +11°C° 0 mm 3 mps 753 mmHg 46%
    21:00 +10°C° 0 mm 3 mps 753 mmHg 48%
    22:00 +10°C° 0 mm 2 mps 753 mmHg 50%
    23:00 +9°C° 0 mm 2 mps 753 mmHg 53%

    Day after tomorrow, 20 September, Friday

    Time Temperature Precipitation Wind Pressure Humidity
    00:00 +9°C° 0 mm 2 mps 753 mmHg 56%
    01:00 +8°C° 0 mm 2 mps 753 mmHg 58%
    02:00 +8°C° 0 mm 2 mps 753 mmHg 60%
    03:00 +7°C° 0 mm 2 mps 753 mmHg 62%
    04:00 +8°C° 0 mm 1 mps 753 mmHg 64%
    05:00 +9°C° 0 mm 1 mps 753 mmHg 62%
    06:00 +9°C° 0 mm 1 mps 753 mmHg 60%
    07:00 +10°C° 0 mm 1 mps 753 mmHg 58%
    08:00 +12°C° 0 mm 1 mps 754 mmHg 52%
    09:00 +14°C° 0 mm 1 mps 754 mmHg 46%
    10:00 +16°C° 0 mm 1 mps 754 mmHg 40%
    11:00 +18°C° 0 mm 1 mps 754 mmHg 37%
    12:00 +19°C° 0 mm 1 mps 754 mmHg 33%
    13:00 +20°C° 0 mm 1 mps 753 mmHg 30%
    14:00 +20°C° 0 mm 1 mps 753 mmHg 30%
    15:00 +20°C° 0 mm 1 mps 753 mmHg 29%
    16:00 +20°C° 0 mm 1 mps 753 mmHg 29%
    17:00 +18°C° 0 mm 1 mps 753 mmHg 32%
    18:00 +16°C° 0 mm 1 mps 753 mmHg 36%
    19:00 +14°C° 0 mm 1 mps 753 mmHg 39%
    20:00 +14°C° 0 mm 1 mps 753 mmHg 40%
    21:00 +13°C° 0 mm 1 mps 753 mmHg 42%
    22:00 +13°C° 0 mm 1 mps 753 mmHg 43%
    23:00 +12°C° 0 mm 1 mps 753 mmHg 45%

    21 September, Saturday

    Time Temperature Precipitation Wind Pressure Humidity
    00:00 +12°C° 0 mm 1 mps 753 mmHg 46%
    01:00 +11°C° 0 mm 1 mps 753 mmHg 48%
    02:00 +11°C° 0 mm 1 mps 753 mmHg 49%
    03:00 +10°C° 0 mm 1 mps 754 mmHg 51%
    04:00 +10°C° 0 mm 1 mps 754 mmHg 52%
    05:00 +10°C° 0 mm 1 mps 753 mmHg 51%
    06:00 +11°C° 0 mm 1 mps 753 mmHg 49%
    07:00 +12°C° 0 mm 1 mps 753 mmHg 48%
    08:00 +14°C° 0 mm 1 mps 754 mmHg 43%
    09:00 +16°C° 0 mm 2 mps 754 mmHg 38%
    10:00 +17°C° 0 mm 2 mps 754 mmHg 33%
    11:00 +18°C° 0 mm 2 mps 754 mmHg 31%
    12:00 +19°C° 0 mm 2 mps 753 mmHg 29%
    13:00 +20°C° 0 mm 2 mps 753 mmHg 27%
    14:00 +20°C° 0 mm 2 mps 752 mmHg 27%
    15:00 +20°C° 0 mm 2 mps 752 mmHg 28%
    16:00 +21°C° 0 mm 2 mps 752 mmHg 28%
    17:00 +19°C° 0 mm 2 mps 752 mmHg 31%
    18:00 +17°C° 0 mm 2 mps 751 mmHg 35%
    19:00 +15°C° 0 mm 2 mps 751 mmHg 38%
    20:00 +15°C° 0 mm 2 mps 751 mmHg 40%
    21:00 +14°C° 0 mm 2 mps 751 mmHg 41%
    22:00 +13°C° 0 mm 2 mps 751 mmHg 43%
    23:00 +13°C° 0 mm 2 mps 751 mmHg 45%

    22 September, Sunday

    Time Temperature Precipitation Wind Pressure Humidity
    00:00 +12°C° 0 mm 2 mps 751 mmHg 47%
    01:00 +11°C° 0 mm 3 mps 750 mmHg 48%
    02:00 +10°C° 0 mm 3 mps 750 mmHg 50%
    03:00 +10°C° 0 mm 3 mps 750 mmHg 51%
    04:00 +10°C° 0 mm 3 mps 749 mmHg 53%
    05:00 +10°C° 0 mm 3 mps 749 mmHg 51%
    06:00 +11°C° 0 mm 3 mps 749 mmHg 49%
    07:00 +11°C° 0 mm 3 mps 749 mmHg 47%
    08:00 +14°C° 0 mm 3 mps 749 mmHg 41%
    09:00 +17°C° 0 mm 4 mps 749 mmHg 36%
    10:00 +19°C° 0 mm 4 mps 749 mmHg 30%
    11:00 +21°C° 0 mm 4 mps 748 mmHg 28%
    12:00 +23°C° 0 mm 5 mps 747 mmHg 25%
    13:00 +25°C° 0 mm 5 mps 747 mmHg 23%
    14:00 +25°C° 0 mm 5 mps 746 mmHg 25%
    15:00 +26°C° 0 mm 4 mps 746 mmHg 26%
    16:00 +26°C° 0 mm 4 mps 745 mmHg 27%
    17:00 +25°C° 0 mm 3 mps 745 mmHg 31%
    18:00 +24°C° 0 mm 2 mps 745 mmHg 34%
    19:00 +21°C° 0 mm 2 mps 745 mmHg 37%
    20:00 +21°C° 0 mm 2 mps 745 mmHg 41%
    21:00 +21°C° 0 mm 2 mps 744 mmHg 44%
    22:00 +20°C° 0 mm 2 mps 744 mmHg 48%
    23:00 +19°C° 0 mm 2 mps 744 mmHg 56%

    23 September, Monday

    Time Temperature Precipitation Wind Pressure Humidity
    00:00 +18°C° 0 mm 2 mps 744 mmHg 64%
    01:00 +18°C° 0 mm 2 mps 743 mmHg 72%
    02:00 +17°C° 0 mm 2 mps 743 mmHg 76%
    03:00 +17°C° 0 mm 2 mps 743 mmHg 80%
    04:00 +16°C° 0 mm 2 mps 743 mmHg 84%
    05:00 +16°C° 0 mm 2 mps 743 mmHg 82%
    06:00 +18°C° 0 mm 1 mps 743 mmHg 79%
    07:00 +18°C° 0 mm 1 mps 743 mmHg 77%
    08:00 +20°C° 0 mm 1 mps 743 mmHg 70%
    09:00 +22°C° 0 mm 1 mps 743 mmHg 64%
    10:00 +23°C° 0 mm 2 mps 743 mmHg 57%
    11:00 +24°C° 0 mm 2 mps 743 mmHg 52%
    12:00 +25°C° 0 mm 2 mps 742 mmHg 48%
    13:00 +26°C° 0 mm 3 mps 742 mmHg 43%
    14:00 +25°C° 0 mm 4 mps 742 mmHg 46%
    15:00 +23°C° 0 mm 4 mps 742 mmHg 49%
    16:00 +21°C° 0 mm 5 mps 742 mmHg 52%
    17:00 +21°C° 0.1 mm 5 mps 742 mmHg 58%
    18:00 +20°C° 0.1 mm 5 mps 742 mmHg 64%
    19:00 +19°C° 0.1 mm 5 mps 743 mmHg 70%
    20:00 +19°C° 0 mm 5 mps 743 mmHg 73%
    21:00 +17°C° 0 mm 5 mps 743 mmHg 75%
    22:00 +17°C° 0 mm 5 mps 743 mmHg 78%
    23:00 +16°C° 0.1 mm 6 mps 743 mmHg 78%
    Show more